TimePST,TemperatureF,Dew PointF,Humidity,Sea Level PressureIn,VisibilityMPH,Wind Direction,Wind SpeedMPH,Gust SpeedMPH,PrecipitationIn,Events,Conditions,WindDirDegrees,DateUTC
12:58 AM,41.9,31.3,66,30.19,10.0,NW,3.5,-,N/A,,Clear,310,2012-11-20 08:58:00
1:58 AM,37.8,28.6,69,30.19,10.0,SW,5.8,-,N/A,,Clear,230,2012-11-20 09:58:00
2:58 AM,38.1,32.0,79,30.19,10.0,WSW,3.5,-,N/A,,Clear,250,2012-11-20 10:58:00
3:58 AM,36.3,31.6,83,30.18,10.0,SSW,2.3,-,N/A,,Clear,210,2012-11-20 11:58:00
4:58 AM,35.6,29.1,77,30.18,10.0,SW,5.8,-,N/A,,Clear,230,2012-11-20 12:58:00
5:58 AM,34.5,28.4,78,30.20,90.0,WSW,2.3,-,N/A,,Clear,240,2012-11-20 13:58:00
6:58 AM,34.7,31.3,87,30.21,90.0,WSW,2.3,-,N/A,,Clear,240,2012-11-20 14:58:00
7:58 AM,40.5,34.0,78,30.21,90.0,West,3.5,-,N/A,,Partly Cloudy,260,2012-11-20 15:58:00
8:58 AM,45.9,34.9,66,30.21,80.0,Variable,2.3,-,N/A,,Partly Cloudy,0,2012-11-20 16:58:00
9:58 AM,50.7,35.8,57,30.19,80.0,East,2.3,-,N/A,,Partly Cloudy,100,2012-11-20 17:58:00
10:58 AM,54.1,36.7,52,30.17,90.0,NNE,2.3,-,N/A,,Partly Cloudy,30,2012-11-20 18:58:00
11:58 AM,58.6,38.3,47,30.12,90.0,Variable,1.2,-,N/A,,Partly Cloudy,0,2012-11-20 19:58:00
12:58 PM,62.8,39.7,43,30.08,90.0,North,3.5,-,N/A,,Partly Cloudy,10,2012-11-20 20:58:00
1:58 PM,66.0,38.7,37,30.05,90.0,Variable,3.5,-,N/A,,Partly Cloudy,0,2012-11-20 21:58:00
2:58 PM,67.1,36.0,32,30.05,90.0,SSE,4.6,-,N/A,,Scattered Clouds,160,2012-11-20 22:58:00
3:58 PM,66.9,35.8,32,30.04,90.0,South,3.5,-,N/A,,Mostly Cloudy,190,2012-11-20 23:58:00
4:58 PM,62.1,33.4,34,30.04,90.0,South,4.6,-,N/A,,Mostly Cloudy,180,2012-11-21 00:58:00
5:58 PM,59.5,32.5,36,30.07,30.0,WNW,5.8,-,N/A,,Mostly Cloudy,300,2012-11-21 01:58:00
6:58 PM,54.3,33.3,45,30.08,30.0,WSW,4.6,-,N/A,,Mostly Cloudy,250,2012-11-21 02:58:00
7:58 PM,50.5,32.5,50,30.09,30.0,WSW,5.8,-,N/A,,Mostly Cloudy,250,2012-11-21 03:58:00
8:58 PM,48.2,32.4,54,30.08,30.0,SSW,4.6,-,N/A,,Mostly Cloudy,200,2012-11-21 04:58:00
9:58 PM,47.3,32.4,56,30.07,30.0,South,8.1,-,N/A,,Scattered Clouds,170,2012-11-21 05:58:00
10:58 PM,45.0,32.0,60,30.07,10.0,SW,4.6,-,N/A,,Clear,220,2012-11-21 06:58:00
11:58 PM,45.9,32.9,61,30.06,10.0,West,3.5,-,N/A,,Clear,260,2012-11-21 07:58:00